Location: Eimen
(51.8766°N, 9.7806°E)
Time: 09:11:27
(UTC+00:00)

ATLAS 2AS CENTAUR R/B - Pass Details

Date: 23 May 2024
Orbit: 1018 x 1193 km, 63.7° (Epoch: 23 June)

Event Time Altitude Azimuth Distance (km) Brightness Sun altitude
Rises 01:30:24 0° 313° (NW) 3,928 5.8 -11.9°
Reaches altitude 10° 01:33:08 10° 316° (NW) 2,942 5.2 -11.7°
Maximum altitude 01:40:04 71° 40° (NE) 1,112 3.0 -11.1°
Drops below altitude 10° 01:46:44 10° 125° (SE) 2,826 4.9 -10.5°
Sets 01:49:19 0° 128° (SE) 3,763 5.6 -10.3°
